Regional Weather Roundup
Issued by NWS

Home | Current Version | Previous Version | Text Only | Print | Product List | Glossary On
Versions: 1 2 3 4 5 6 7 8 9 10 11 12 13 14 15 16 17 18 19 20 21 22 23 24 25 26 27 28 29 30 31 32 33 34 35 36 37 38 39 40 41 42 43 44 45 46 47 48 49 50
000
ASUS43 KMKX 262221
RWRWI

WISCONSIN REGIONAL WEATHER ROUNDUP
NATIONAL WEATHER SERVICE MILWAUKEE/SULLIVAN WI
500 PM CDT TUE JUL 26 2016

NOTE: "FAIR" INDICATES FEW OR NO CLOUDS BELOW 12,000 FEET WITH NO
SIGNIFICANT WEATHER AND/OR OBSTRUCTIONS TO VISIBILITY.

WIZ001-002-006>008-014>016-023>028-262300-
NORTHWEST WISCONSIN

CITY           SKY/WX    TMP DP  RH WIND       PRES   REMARKS
SUPERIOR ARPT  MOSUNNY   82  69  64 NW6       29.94R HX  85
ASHLAND        CLOUDY    87  69  54 NW12      29.94R HX  91
HAYWARD        SUNNY     86  67  52 W8G21     29.97S HX  89
SIREN          SUNNY     86  66  51 W8        29.97S HX  88
CUMBERLAND     SUNNY     86  61  42 W9        29.98S HX  86
RICE LAKE      SUNNY     86  65  49 SW8       29.99S HX  87
CHETEK         SUNNY     87  66  49 SW9       29.99R HX  90
LADYSMITH      CLOUDY    84  65  51 W9        30.00S HX  86
EAU CLAIRE     SUNNY     88  63  43 SW15G25   29.97S HX  89
MENOMONIE      SUNNY     89  64  43 SW14G23   29.98S HX  91
NEW RICHMOND   SUNNY     88  60  39 SW15      29.98S HX  88
OSCEOLA        SUNNY     88  65  45 W10G16    30.00S HX  89
$$

WIZ003>005-009-010-017-018-262300-
NORTH CENTRAL WISCONSIN

CITY           SKY/WX    TMP DP  RH WIND       PRES   REMARKS
MANITOWISH WTR MOSUNNY   85  65  51 W10G20    29.97S HX  87
ARBOR VITAE    MOSUNNY   86  63  46 W12G20    29.98S HX  86
WOODRUFF       MOSUNNY   86  63  46 W12G20    29.98S HX  86
RHINELANDER    SUNNY     87  61  41 W14       30.00R HX  87
EAGLE RIVER    SUNNY     85  61  44 SW15      29.97F HX  85
LAND O LAKES   MOSUNNY   86  60  42 W13G20    29.98S HX  85
PHILLIPS       MOSUNNY   84  64  51 SW10G16   29.98S HX  85
TOMAHAWK       MOSUNNY   85  62  45 W6        29.99S HX  86
MEDFORD        SUNNY     83  66  55 SW10G18   30.00S HX  85
MERRILL        SUNNY     86  65  48 W13       29.99S HX  88
$$

WIZ029-030-035-036-043>047-262300-
CENTRAL WISCONSIN

CITY           SKY/WX    TMP DP  RH WIND       PRES   REMARKS
WAUSAU         SUNNY     86  64  47 SW10      29.97F HX  87
MOSINEE        SUNNY     84  64  51 SW14      30.01F HX  86
MARSHFIELD     SUNNY     86  65  49 SW13G20   30.00F HX  88
STEVENS POINT  SUNNY     85  64  48 SW10G17   30.00F HX  86
WAUPACA        MOSUNNY   89  64  42 SW8       29.99F HX  90
WAUTOMA        MOSUNNY   88  66  48 SW8       30.00F HX  90
WISC RAPIDS    SUNNY     88  62  41 SW7G16    30.01F HX  88
CAMP DOUGLAS   MOSUNNY   86  70  58 W7        30.01F HX  90
$$

WIZ011>013-019>022-031-037>040-048>050-262300-
NORTHEAST WISCONSIN

CITY           SKY/WX    TMP DP  RH WIND       PRES   REMARKS
ANTIGO         SUNNY     82  63  51 W12G20    30.00S HX  83
SHAWANO        SUNNY     89  64  43 SW9G17    29.96F HX  90
OCONTO         SUNNY     86  69  55 SW9G16    29.94F HX  90
STURGEON BAY   SUNNY     87  67  51 MISG      29.97F HX  90
GREEN BAY      SUNNY     85  69  58 W8        29.97F HX  89
MANITOWOC      SUNNY     85  63  47 SW10      29.99F HX  86
APPLETON       MOSUNNY   84  63  48 SW9       29.98F HX  85
CLINTONVILLE   SUNNY     88  63  42 SW12      29.97F HX  88
OSHKOSH        SUNNY     85  65  51 VRB6      30.00F HX  86
$$

WIZ032>034-041-042-053>061-262300-
SOUTHWEST WISCONSIN

CITY           SKY/WX    TMP DP  RH WIND       PRES   REMARKS
LA CROSSE      SUNNY     89  65  44 SW6       30.00S HX  91
SPARTA         SUNNY     87  64  47 W5        30.02S HX  88
VIROQUA        SUNNY     84  63  48 CALM      30.04F HX  85
BOSCOBEL       SUNNY     89  67  47 W3        30.01F HX  92
PRAIRIE DU CHI SUNNY     85  61  43 CALM      30.01F HX  85
PLATTEVILLE    SUNNY     83  66  57 CALM      30.04S HX  85
$$

WIZ056-057-062-063-064-067-068-262300-
SOUTH CENTRAL WISCONSIN

CITY           SKY/WX    TMP DP  RH WIND       PRES   REMARKS
REEDSBURG      SUNNY     84  66  54 SW5       30.02S HX  86
BARABOO/DELLS  SUNNY     84  64  49 SW5       30.02F HX  85
LONE ROCK      SUNNY     86  67  52 N6        30.02F HX  89
MINERAL POINT  SUNNY     86  61  42 CALM      30.04F HX  86
MADISON        MOSUNNY   86  64  47 N6        30.01F HX  87
MIDDLETON      SUNNY     86  63  45 NW5       30.02F HX  87
WATERTOWN      SUNNY     84  65  51 NW7       30.01F HX  86
MONROE         SUNNY     82  59  44 CALM      30.03F HX  82
JANESVILLE     MOSUNNY   88  63  42 W6        30.01F HX  88
$$

WIZ051-052-058>065-066-070>072-262300-
SOUTHEAST WISCONSIN

CITY           SKY/WX    TMP DP  RH WIND       PRES   REMARKS
MILWAUKEE      MOSUNNY   84  61  45 SE9       30.01S HX  84
WAUKESHA       MOSUNNY   82  61  47 W8        30.03S HX  83
MILWAUKEE/TIMM SUNNY     84  52  32 SE6       30.01F HX  82
RACINE         SUNNY     84  60  44 SE8       30.03S HX  84
BURLINGTON     MOSUNNY   86  60  41 W5        30.01F HX  86
KENOSHA        SUNNY     84  62  47 SE8       30.01F HX  85
FOND DU LAC    SUNNY     87  62  43 VRB7      30.01F HX  87
SHEBOYGAN      SUNNY     85  63  47 W7        30.00F HX  86
WEST BEND      SUNNY     86  59  39 NW6       30.01F HX  85
JUNEAU         SUNNY     83  65  54 W7        30.03F HX  85
$$

LSZ147-162-262300-
LAKE SUPERIOR

STATION/POSITION TIME  TEMP    WIND        PRES    WAVE
                       AIR SEA DIR/SP/G            HT/PER
                 (UTC) (F)     (DEG/KT/KT) (MB)    (FT/S)
W MID LAKE BUOY  2150   69 66  250/  4/  4 1012.4F   0
DEVILS ISLAND    2200   72     240/ 14/ 17 1013.0F
SAXON HARBOR     2100   85     290/  8/ 13 1013.2S
$$

LMZ867-665-643>646-262300-
LAKE MICHIGAN

STATION/POSITION TIME  TEMP    WIND        PRES    WAVE
                       AIR SEA DIR/SP/G            HT/PER
                 (UTC) (F)     (DEG/KT/KT) (MB)    (FT/S)
CHAMBERS ISLAND  2100   83     180/  9/ 17 1013.9F
S GREEN BAY BUOY 2200   80 76  200/ 10/ 12   N/A
N MID LAKE BUOY  2150   73 71  200/ 16/ 17 1013.3F   2/ 3
NORTHPORT PIER   2100   81     150/ 10/ 12 1013.9F
SISTER BAY       2106   85     220/ 14/ 18   N/A
ALGOMA LAKESHORE 2113          220/ 13/ 15   N/A
KEWAUNEE LAKESHO 2100   66     170/  8/ 13 1015.2F
SHEBOYGAN LAKESH 2200   78     170/ 10/ 10 1015.8F
PORT WASHINGTON  2100   79     190/  6/  8 1016.9
ATWATER BUOY     2200   65 62  190/  4/  4 1017.9F
MILWAUKEE LAKESH 2110   68     140/  8/  9   N/A
S MID LAKE BUOY  2150   77 76  240/  2/  2 1015.8F   0
KENOSHA   LAKESH 2200   78     140/  7/  8 1015.9S
$$

TC  - TEMPERATURE IN CELSIUS
VSB - VISIBILITY IN STATUTE MILES
WCI - WIND CHILL INDEX
HX  - HEAT INDEX




USA.gov is the U.S. government's official web portal to all federal, state and local government web resources and services.